EW2985 Weather Reports


time (UTC)temp
F
wind
direction
speed
knots
gust
knots
rain 1hr
in
rain 24hr
in
rain mn
in
humidity
%
barometer
mb
20260505153052 78 268 2.6 6.1 0.00 0.00 0.00 41 1009.5
20260505151554 78 231 1.7 7.0 0.00 0.00 0.00 42 1009.6
20260505124515 65 259 0.9 3.5 0.00 0.00 0.00 61 1011.0
20260505123012 64 22 0.0 1.7 0.00 0.00 0.00 63 1011.0
20260505121511 63 228 0.0 2.6 0.00 0.00 0.00 64 1010.9
20260505120033 62 243 0.9 2.6 0.00 0.00 0.00 65 1010.8
20260505114508 62 253 0.0 1.7 0.00 0.00 0.00 66 1010.5
20260505113005 61 69 0.0 0.9 0.00 0.00 0.00 68 1010.3
20260505111503 61 250 0.0 1.7 0.00 0.00 0.00 68 1010.2
20260505101556 59 257 0.0 0.9 0.00 0.00 0.00 70 1009.7
20260505100053 59 257 0.0 1.7 0.00 0.00 0.00 69 1009.4
20260505094551 59 256 0.0 1.7 0.00 0.00 0.00 68 1009.4
20260505093053 60 265 0.0 1.7 0.00 0.00 0.00 67 1009.4
20260505091549 60 259 0.0 1.7 0.00 0.00 0.00 67 1009.4
20260505090050 61 259 0.0 1.7 0.00 0.00 0.00 66 1009.4
20260505084546 61 262 0.0 1.7 0.00 0.00 0.00 65 1009.3
20260505083049 61 263 0.0 0.9 0.00 0.00 0.00 65 1009.3
20260505081546 61 263 0.0 1.7 0.00 0.00 0.00 66 1009.1
20260505080044 60 256 0.0 0.9 0.00 0.00 0.00 67 1009.2
20260505074543 60 255 0.0 0.0 0.00 0.00 0.00 67 1009.1
20260505073058 61 255 0.0 0.0 0.00 0.00 0.00 65 1009.0
20260505071536 62 255 0.0 0.0 0.00 0.00 0.00 63 1008.9
20260505070032 63 254 0.0 1.7 0.00 0.00 0.00 61 1009.1
20260505064540 63 41 0.0 1.7 0.00 0.00 0.00 61 1009.1
20260505063031 63 246 0.0 1.7 0.00 0.00 0.00 61 1009.3
20260505061545 63 249 0.0 0.9 0.00 0.00 0.00 61 1009.3
20260505060028 63 247 0.0 1.7 0.00 0.00 0.00 61 1009.3
20260505054544 63 257 0.9 0.0 0.00 0.00 0.00 61 1009.2
20260505053030 63 283 0.0 4.3 0.00 0.00 0.00 61 1009.3
20260505051525 63 59 0.9 3.5 0.00 0.00 0.00 60 1009.3
20260505041517 64 63 0.9 2.6 0.00 0.00 0.00 57 1009.1
20260505040014 64 346 0.0 2.6 0.00 0.00 0.00 57 1009.1
20260505034513 64 278 0.0 1.7 0.00 0.00 0.00 57 1008.9
20260505033012 64 252 0.0 2.6 0.00 0.00 0.00 56 1008.8
20260505031530 64 262 0.0 1.7 0.00 0.00 0.00 56 1008.8
20260505030012 64 240 0.0 1.7 0.00 0.00 0.00 56 1009.0
20260505024518 64 239 0.0 1.7 0.00 0.00 0.00 55 1009.1
20260505023011 64 345 0.0 1.7 0.00 0.00 0.00 54 1009.1
20260505021513 64 349 0.0 0.9 0.00 0.00 0.00 54 1009.0
20260505020011 65 202 0.0 1.7 0.00 0.00 0.00 53 1009.1
20260505014505 65 90 0.0 1.7 0.00 0.00 0.00 52 1009.3
20260505013004 65 146 0.0 0.9 0.00 0.00 0.00 50 1009.2
20260505011503 66 96 0.0 1.7 0.00 0.00 0.00 49 1009.1
20260505004600 66 13 0.0 2.6 0.00 0.00 0.00 47 1008.7
20260505003100 67 249 0.0 2.6 0.00 0.00 0.00 46 1008.7
20260505001601 68 58 0.0 1.7 0.00 0.00 0.00 44 1008.6
20260505000115 69 252 0.9 3.5 0.00 0.00 0.00 42 1008.6
20260504234556 70 255 0.0 3.5 0.00 0.00 0.00 40 1008.6
20260504233100 73 235 0.0 1.7 0.00 0.00 0.00 38 1008.5
20260504231556 75 25 0.0 2.6 0.00 0.00 0.00 36 1008.5
20260504230106 77 239 0.0 2.6 0.00 0.00 0.00 34 1008.5
20260504224553 78 233 0.0 2.6 0.00 0.00 0.00 34 1008.6
20260504223056 78 259 0.0 1.7 0.00 0.00 0.00 34 1008.6
20260504221601 79 248 0.9 2.6 0.00 0.00 0.00 33 1008.5
20260504220055 80 212 0.0 2.6 0.00 0.00 0.00 33 1008.6
20260504214550 80 35 0.9 2.6 0.00 0.00 0.00 32 1008.6
20260504213047 79 240 0.9 4.3 0.00 0.00 0.00 31 1008.6
20260504211547 78 269 0.0 6.1 0.00 0.00 0.00 33 1008.6
20260504210046 79 226 0.9 3.5 0.00 0.00 0.00 31 1008.6
20260504204542 78 236 0.9 5.2 0.00 0.00 0.00 32 1008.7
20260504203041 79 8 0.9 4.3 0.00 0.00 0.00 32 1008.8
20260504201540 78 57 1.7 4.3 0.00 0.00 0.00 30 1009.0
20260504200036 77 267 1.7 5.2 0.00 0.00 0.00 33 1009.1
20260504194536 76 312 0.9 7.0 0.00 0.00 0.00 33 1009.5
20260504193033 77 226 2.6 7.0 0.00 0.00 0.00 33 1009.6
20260504191529 76 274 0.9 4.3 0.00 0.00 0.00 33 1009.9
20260504190025 75 231 2.6 5.2 0.00 0.00 0.00 34 1010.1
20260504184523 75 91 1.7 5.2 0.00 0.00 0.00 32 1010.3
20260504183020 74 235 0.9 7.0 0.00 0.00 0.00 35 1010.5
20260504181518 74 232 1.7 4.3 0.00 0.00 0.00 34 1010.5
20260504180015 73 235 1.7 6.1 0.00 0.00 0.00 35 1010.8
20260504174513 72 39 0.0 5.2 0.00 0.00 0.00 38 1010.9
20260504173010 73 208 1.7 5.2 0.00 0.00 0.00 36 1011.2
20260504171507 71 259 0.0 3.5 0.00 0.00 0.00 40 1011.5